RH
16 20 21 14 11 12 13 12 12 26 39 35 33 34 43 47 48 49 78 93 86 74 68 45 42 52 54 56 61 65 62 54 53 49 58 66 69 72 70 65 61 58 60 64 64 58 49 49 54
16 25 14 14 11 12 13 12 16 17 38 35 38 39 44 63 58 65 66 98 87 70 74 48 44 46 53 57 60 65 65 64 59 57 62 63 68 72 72 70 65 62 60 59 60 55 48 52 64
22 19 13 15 15 15 15 20 21 11 38 41 43 46 62 86 72 77 97 99 91 86 71 46 42 45 44 54 61 65 68 68 66 64 62 66 68 70 74 73 70 66 63 58 48 48 48 56 62
23 14 12 13 16 18 21 23 22 38 40 41 42 58 73 88 89 100 100 99 90 85 78 44 46 42 40 42 49 60 65 66 65 66 68 69 70 69 65 58 58 61 60 55 46 48 50 55 60
16 14 15 17 19 18 18 18 26 34 44 41 45 64 74 84 96 99 99 98 81 73 54 46 49 44 39 41 44 50 55 58 62 64 67 70 73 73 67 52 50 53 47 45 53 53 50 52 52
18 14 15 20 20 16 15 16 24 26 28 31 46 62 56 49 96 99 99 99 92 81 70 54 50 46 41 40 43 47 53 60 64 66 69 70 72 75 71 63 52 50 46 43 48 52 49 52 54
17 17 18 18 20 17 14 14 24 32 34 39 27 46 41 42 59 85 97 99 99 96 95 86 89 65 49 44 41 44 51 58 63 65 66 68 74 72 68 67 62 52 50 47 46 50 54 60 62
17 18 18 16 20 18 16 22 30 32 45 30 33 52 54 48 51 58 73 81 93 99 99 97 94 90 75 73 55 44 45 52 58 62 62 65 68 72 73 69 64 57 52 50 48 51 60 64 66
17 19 20 18 17 16 16 25 29 30 35 40 41 44 45 47 50 51 55 59 67 78 90 94 98 96 90 84 74 71 55 47 51 56 60 61 75 70 65 70 66 62 56 53 50 50 61 63 65
22 22 20 20 20 37 37 26 31 34 37 40 40 40 43 45 48 51 54 56 59 64 65 73 86 92 95 85 82 77 76 77 63 53 54 58 60 60 61 66 61 64 61 58 59 56 53 58 75
24 21 20 29 30 32 43 52 45 40 52 52 52 46 43 46 46 49 52 57 60 63 68 74 77 87 99 99 91 90 92 88 69 66 60 57 58 61 65 70 69 63 62 78 69 72 78 79 72
16 28 19 25 29 33 44 49 60 59 61 48 46 48 47 46 47 49 51 53 58 61 67 72 79 90 100 100 98 90 86 95 91 96 73 73 70 64 63 58 58 60 57 56 60 77 75 66 59
27 36 40 40 43 46 46 56 61 64 54 51 50 50 49 48 49 50 52 53 57 60 67 71 73 80 86 96 100 96 98 84 86 95 96 77 90 87 71 62 62 59 57 53 47 62 69 73 71
30 38 42 41 43 43 49 56 49 60 54 53 49 49 50 49 50 49 51 54 57 60 64 71 73 74 80 82 88 99 98 98 97 95 94 95 90 97 95 92 90 81 69 55 52 72 74 75 76
30 35 31 42 33 40 38 51 70 60 54 56 56 50 49 50 51 53 55 55 57 58 63 68 71 74 76 86 86 84 98 99 97 93 99 98 88 97 96 96 94 90 89 65 73 69 73 77 76
22 21 25 44 39 42 32 63 62 58 55 56 56 55 53 52 53 54 56 55 55 57 61 64 73 73 74 86 96 96 90 98 99 99 98 98 100 92 96 96 93 92 96 94 90 86 82 76 72
22 22 28 35 46 41 33 62 63 58 58 59 58 59 56 53 53 57 55 55 55 58 57 57 66 77 82 79 85 96 100 100 100 98 99 100 100 100 98 99 94 97 94 94 93 89 89 75 76
23 29 44 47 54 47 55 67 64 62 62 67 61 58 58 57 59 65 63 62 56 59 59 59 59 54 71 89 92 93 96 99 100 100 100 100 100 98 98 100 100 99 97 91 90 91 84 86 78
28 37 52 58 51 56 62 63 63 62 61 61 60 60 61 62 64 67 69 61 59 60 60 60 62 63 57 80 86 92 99 99 99 99 99 99 100 100 100 100 100 99 100 95 93 93 90 84 88
32 40 55 57 53 53 62 62 62 60 62 64 60 58 61 60 60 67 68 59 60 60 66 63 63 69 72 72 82 92 94 99 99 99 99 99 100 99 100 100 100 100 100 100 99 98 90 85 83
34 35 54 47 58 56 55 55 55 55 55 56 58 59 58 61 61 60 60 59 59 62 65 63 66 67 75 79 74 75 79 81 94 99 98 99 99 99 100 100 100 100 100 100 98 99 97 88 79
30 30 42 51 39 42 50 30 56 55 52 54 60 56 55 56 56 57 55 56 60 65 65 64 65 64 67 76 78 81 78 74 83 91 96 98 98 99 98 100 95 95 96 100 100 100 100 97 92
38 40 42 38 41 46 48 46 53 61 49 48 57 57 56 57 58 57 59 58 59 64 67 68 66 65 70 74 78 77 83 80 80 82 84 91 96 99 99 99 99 95 98 97 96 90 94 97 99
36 37 40 42 43 44 43 44 56 56 64 52 57 56 56 56 56 57 61 60 56 58 64 64 66 67 70 71 77 82 84 80 77 80 83 86 90 92 99 100 100 99 99 100 99 100 100 94 84
32 34 44 48 53 45 50 48 69 53 49 48 53 52 55 57 56 56 53 55 58 61 67 63 67 68 71 71 74 79 83 82 76 79 82 84 88 92 97 100 95 97 100 99 99 98 100 99 100
34 36 40 40 45 50 59 66 50 46 48 50 50 52 58 58 58 59 59 61 61 67 73 66 67 71 69 70 73 74 77 72 75 77 76 79 84 89 94 98 100 100 97 96 97 98 84 94 99
39 40 42 60 64 60 56 78 53 53 57 58 58 62 58 58 56 56 60 66 66 69 74 67 69 74 70 70 71 73 76 78 78 78 78 78 80 75 83 88 97 99 100 93 92 92 86 90 94
32 42 52 57 73 64 56 64 54 74 67 61 62 60 54 56 55 57 61 66 70 73 67 59 73 72 71 70 71 73 76 78 80 81 80 81 80 74 80 80 86 89 97 91 88 87 86 85 90
48 52 65 55 53 40 38 38 52 56 60 67 56 49 46 46 50 55 60 69 74 72 61 66 71 70 70 70 73 76 80 81 81 83 85 86 83 81 83 86 87 88 94 89 88 88 84 82 84
41 46 48 70 73 71 64 54 38 51 52 52 46 45 44 45 49 53 65 71 69 60 63 69 74 70 71 73 76 81 82 80 83 85 86 87 84 85 87 90 90 89 96 91 90 89 89 86 84
Wind_Speed
14 10 3 2 3 1 3 4 2 8 3 3 4 12 14 11 5 6 4 2 17 21 19 20 20 20 18 19 22 23 23 24 24 24 23 21 21 20 19 19 20 18 16 14 12 12 13 16 18
10 5 2 2 1 4 3 4 6 6 3 3 6 6 11 9 9 4 6 6 17 20 18 19 19 20 19 19 21 22 22 22 21 22 21 20 19 18 17 17 17 16 15 14 12 13 15 17 18
5 5 1 3 2 3 3 8 10 5 9 4 5 11 6 10 9 6 5 10 16 16 17 18 17 18 19 19 20 21 21 19 18 19 19 18 17 16 14 14 15 14 13 14 15 15 16 17 16
3 2 3 5 13 9 4 11 6 4 7 12 8 12 8 22 6 9 6 12 13 14 14 17 15 16 16 18 19 19 19 18 17 17 17 15 14 14 13 12 13 13 13 14 15 17 17 16 16
4 2 4 5 11 7 10 11 12 10 8 14 10 12 8 17 17 13 9 9 12 14 15 16 15 14 15 15 16 16 17 18 17 16 15 13 12 12 12 11 11 12 13 14 14 17 17 17 15
2 1 5 6 8 7 11 16 15 15 13 11 14 11 8 24 18 17 11 10 9 10 10 12 13 13 14 14 15 16 17 17 17 15 12 10 10 10 10 10 10 11 11 12 14 15 16 16 15
2 4 4 10 9 6 5 3 15 13 16 14 9 6 5 31 29 21 20 15 11 9 6 4 4 8 10 13 14 15 16 16 15 14 12 10 10 10 9 8 9 9 10 11 13 14 15 15 14
3 4 8 3 9 6 4 6 14 17 17 4 9 9 6 23 19 18 23 21 18 14 10 6 2 2 6 8 10 13 15 16 15 14 12 11 10 10 9 8 8 9 9 11 13 14 15 14 13
2 4 10 8 11 12 3 12 11 12 20 26 11 13 9 15 14 27 25 26 22 19 15 7 6 7 6 6 9 9 12 14 15 15 14 13 12 11 11 9 9 9 10 11 12 14 15 15 15
2 3 7 3 7 9 13 15 10 10 14 13 17 19 19 19 26 29 27 23 24 24 21 14 7 7 9 9 9 11 12 12 14 16 16 16 15 14 13 11 11 10 11 12 13 14 16 17 13
3 3 9 11 21 19 19 26 7 5 16 12 12 14 19 21 25 25 23 21 19 18 20 21 14 5 6 11 12 11 12 13 15 16 16 17 17 16 15 14 14 14 14 13 14 15 15 15 15
8 13 8 7 6 7 8 9 22 21 8 9 10 13 17 22 25 23 21 21 21 21 22 23 22 13 3 7 13 15 15 13 14 14 17 17 17 18 19 20 19 18 18 18 18 16 17 19 20
13 11 17 22 25 25 25 22 16 19 11 11 13 16 18 21 22 21 19 19 20 22 22 24 24 24 12 7 7 16 15 19 20 16 16 20 18 19 20 22 22 21 21 21 21 20 19 19 20
16 23 15 13 18 13 19 13 5 12 10 11 12 15 17 22 22 22 26 25 24 22 23 23 24 25 21 11 9 10 16 16 17 20 20 20 23 20 19 19 19 21 22 23 22 18 18 19 20
22 24 15 12 2 4 5 13 12 7 7 11 13 14 15 21 23 24 23 23 23 22 22 24 24 27 24 19 13 10 11 20 20 22 22 25 28 27 23 21 21 21 21 24 22 22 21 20 20
11 8 7 6 4 5 1 4 7 7 7 12 13 12 14 19 21 21 20 21 23 23 25 24 23 27 26 21 17 13 12 14 20 22 24 25 25 26 25 22 23 22 20 21 20 20 19 20 21
5 10 10 4 12 3 3 7 4 7 8 12 12 12 12 13 20 21 22 21 20 21 26 28 27 27 26 24 20 15 16 11 13 18 22 24 24 22 22 23 25 23 22 22 21 20 19 21 21
9 7 6 5 8 16 19 13 7 5 7 8 9 10 10 12 14 18 20 21 21 21 21 23 27 31 28 22 21 17 17 22 19 13 12 15 19 19 20 21 24 24 23 23 23 23 22 23 23
13 13 14 4 2 7 12 11 6 4 5 7 7 9 10 10 11 15 19 20 21 23 24 25 28 31 32 28 27 19 21 24 23 23 21 18 11 12 18 18 19 20 21 24 24 23 23 25 21
16 22 9 5 5 6 7 7 3 3 3 2 4 7 8 8 10 13 14 18 22 23 24 25 26 26 27 23 21 14 18 15 20 23 24 24 22 16 7 8 16 20 20 20 21 23 24 24 21
9 12 10 9 8 8 10 3 3 3 1 2 3 4 7 8 9 11 13 15 18 21 23 24 24 25 26 24 22 19 15 17 23 28 27 23 23 22 20 14 9 7 11 20 21 22 24 26 25
7 6 12 18 6 4 5 4 5 3 2 3 3 4 7 9 9 11 12 14 17 18 19 21 23 24 24 24 23 24 22 22 21 21 24 25 23 22 21 21 17 17 13 14 7 6 17 25 25
6 14 15 7 5 7 5 3 4 2 6 5 5 4 4 5 6 8 9 11 12 15 16 17 17 22 24 24 24 22 22 20 19 20 23 24 24 25 25 22 21 19 19 15 15 13 14 21 15
16 14 8 4 2 2 3 3 3 6 6 4 5 5 4 3 3 4 4 8 12 14 17 18 17 19 20 22 23 22 21 21 23 24 24 23 23 23 24 24 25 22 19 20 16 18 15 14 11
6 7 4 3 3 2 2 3 4 8 8 9 11 8 4 2 2 0 3 6 8 12 15 17 16 17 17 19 21 21 20 20 21 22 22 23 22 24 26 24 23 24 21 20 19 19 19 18 18
8 2 5 5 4 3 1 5 1 6 8 8 7 6 3 4 4 4 2 1 5 8 11 13 13 14 16 17 18 19 19 18 19 20 20 20 21 21 22 22 21 21 24 23 20 18 21 20 21
5 4 3 6 2 2 3 3 5 6 7 8 8 6 8 7 6 5 4 3 1 6 9 11 10 11 14 15 15 17 17 19 19 19 19 20 20 21 21 21 21 20 19 24 22 20 23 22 20
2 8 3 1 6 4 3 5 5 14 14 12 10 10 9 7 6 6 5 5 3 3 5 8 8 10 12 14 14 14 14 16 16 17 19 21 22 23 22 21 20 20 20 22 22 21 21 21 20
5 3 4 4 0 3 2 4 4 17 17 16 13 12 10 9 6 4 4 6 5 5 6 7 7 9 11 12 12 12 12 14 15 15 17 19 20 21 20 20 19 19 19 21 21 20 21 21 20
2 6 5 4 5 2 1 4 1 8 16 15 14 11 9 7 6 7 7 9 9 8 7 6 6 7 8 9 10 11 12 14 15 15 17 19 19 19 19 19 18 18 17 20 22 22 22 23 22
Wind_Direction
333 339 1 27 219 59 79 70 316 15 60 357 78 89 89 45 21 83 353 33 148 149 153 155 157 160 157 158 165 164 161 157 156 156 155 155 152 148 146 146 147 147 143 138 136 136 133 131 135
339 357 63 70 111 131 100 5 360 21 2 270 65 92 60 64 31 66 105 115 148 147 151 152 157 158 158 156 162 165 163 161 159 158 158 159 156 154 152 152 154 151 149 146 145 144 140 139 140
343 11 45 79 54 59 335 345 313 286 23 73 111 49 35 349 3 15 37 136 141 140 147 151 155 156 154 156 154 162 163 164 162 161 161 161 161 161 163 163 163 160 156 154 153 151 147 145 146
3 31 75 83 97 48 26 338 310 281 52 53 118 72 93 24 15 21 80 133 135 135 142 149 155 154 152 152 155 162 167 167 164 161 162 165 166 167 166 166 170 170 165 163 160 156 155 155 153
36 55 74 84 82 74 34 23 40 75 79 48 77 81 75 21 24 41 60 117 131 136 145 150 156 158 154 152 153 159 164 164 163 162 164 167 172 174 170 166 167 170 171 171 166 164 163 161 159
88 92 109 104 87 80 60 29 60 52 47 31 67 82 70 6 16 44 66 86 103 124 134 148 158 164 161 158 157 160 165 166 166 167 169 171 175 177 179 177 177 179 179 177 175 173 172 171 168
112 92 120 123 107 77 29 35 36 56 40 14 349 62 52 15 14 47 62 61 65 83 83 108 140 170 172 171 168 168 171 175 177 177 178 176 174 179 184 191 191 192 188 185 184 184 182 183 184
103 92 145 169 137 100 84 86 63 44 36 142 28 37 14 347 359 53 63 66 75 54 32 7 345 211 191 198 191 180 179 183 186 188 189 189 186 188 195 201 206 206 203 196 193 194 195 199 205
157 93 169 155 149 139 123 102 67 78 77 62 71 59 14 6 25 54 47 45 47 47 40 23 353 307 273 241 215 215 201 193 195 197 200 202 201 203 204 210 216 217 216 213 210 208 209 213 221
85 123 165 52 110 101 69 81 101 86 71 53 44 35 31 32 40 47 38 32 29 23 23 16 346 307 287 264 252 234 225 219 213 209 207 209 214 216 218 220 223 227 228 227 226 224 223 225 232
78 107 107 80 115 105 98 64 49 92 55 38 21 13 23 35 41 41 38 32 24 19 19 23 14 329 280 276 268 257 252 244 232 229 225 222 221 222 223 226 228 232 232 232 232 233 232 232 236
111 54 85 135 109 105 78 83 69 62 70 53 33 26 32 38 37 32 28 23 20 19 17 19 20 10 345 265 268 262 259 256 251 247 237 236 233 230 229 231 233 235 238 239 237 237 238 241 242
105 96 78 97 91 88 96 80 83 54 43 51 46 43 41 40 37 34 30 30 22 20 15 17 18 18 357 323 275 273 255 255 260 258 254 247 243 242 240 238 238 239 242 244 245 244 244 246 248
112 105 98 81 86 84 91 56 83 26 30 48 50 48 44 41 32 29 24 19 19 16 14 11 14 14 13 354 298 294 272 259 255 257 258 259 255 251 248 247 245 244 245 247 250 247 248 250 250
121 106 104 29 16 122 299 38 37 19 47 59 55 48 45 41 37 30 21 17 12 14 14 15 11 10 12 9 353 289 272 272 269 268 265 266 263 260 253 255 252 250 251 254 253 253 253 254 254
115 98 125 29 10 15 106 92 26 25 57 61 59 58 55 47 41 34 30 23 17 15 15 15 14 13 13 9 6 356 319 270 274 276 277 272 269 263 257 255 257 258 257 257 255 253 254 255 256
18 139 114 123 22 127 102 134 40 31 57 63 54 45 45 47 45 37 32 32 29 23 20 19 18 15 13 13 12 15 19 354 301 289 290 286 274 262 255 255 258 257 257 258 258 258 255 260 262
160 124 75 79 22 89 97 116 109 84 77 64 53 46 41 35 29 28 30 30 32 33 33 29 25 20 18 14 14 22 21 31 27 20 6 298 275 269 263 260 259 258 256 255 254 253 254 254 259
108 108 109 94 94 65 95 117 119 112 98 77 53 43 40 42 20 26 26 27 29 31 32 31 28 26 24 19 13 19 13 17 17 21 16 8 338 274 267 268 266 265 258 261 259 258 259 260 262
125 123 106 91 80 88 137 114 115 127 112 75 58 58 55 56 51 40 34 29 27 28 28 26 27 26 27 25 24 24 15 17 20 19 17 18 18 13 6 276 267 266 257 259 254 253 257 259 258
126 147 160 138 118 72 140 115 199 177 170 137 97 86 79 69 71 61 54 49 43 32 27 29 29 26 25 26 27 29 28 27 18 16 16 14 13 20 19 18 9 317 275 262 263 256 251 254 251
122 142 136 138 146 154 208 177 221 192 211 165 151 108 86 87 84 71 65 55 48 39 34 33 31 30 30 31 32 32 31 29 18 12 12 17 14 12 15 14 19 20 25 21 21 302 275 257 252
128 135 130 138 107 139 192 226 142 189 210 189 170 155 118 88 77 73 63 57 53 46 37 34 39 35 32 32 36 35 32 24 18 21 19 13 11 13 13 18 4 17 17 16 7 353 344 20 321
132 110 81 73 92 213 172 223 208 187 192 177 178 182 173 150 106 86 67 57 46 40 34 32 41 40 36 33 33 34 35 27 23 18 18 13 9 7 5 7 14 10 6 12 20 7 19 16 1
134 144 126 161 190 222 142 191 256 190 179 169 170 174 185 205 211 9 44 41 35 31 28 28 34 39 37 34 32 30 30 27 27 23 17 11 8 6 3 5 7 7 0 2 8 358 360 360 1
160 172 164 170 184 147 156 228 256 190 167 155 164 164 201 235 235 238 231 4 15 15 19 26 35 39 36 36 36 34 32 28 28 21 21 15 7 2 359 2 4 6 8 8 5 359 359 354 357
160 178 99 107 46 176 201 268 250 174 172 187 198 207 222 229 230 232 221 210 46 24 23 29 40 47 38 34 37 39 35 31 29 26 24 15 10 3 360 2 0 1 357 359 2 0 0 1 357
158 141 143 78 153 212 210 264 218 192 191 196 203 212 214 221 222 217 211 183 137 52 55 50 60 53 37 36 39 38 34 29 27 25 20 15 7 5 1 1 0 358 356 359 360 358 354 355 355
141 161 74 102 71 175 192 242 222 194 188 187 196 200 202 199 197 180 166 152 135 108 90 80 69 46 38 41 40 38 31 26 23 21 15 9 2 1 1 359 359 357 353 356 356 356 353 355 351
135 165 163 158 187 80 64 272 290 200 181 181 189 198 197 200 182 162 153 140 135 125 112 96 75 54 45 40 38 33 27 20 18 15 8 2 360 359 359 358 357 356 352 356 357 353 351 350 348